{"data":{"norad_id":60098,"epoch":"2026-09-21T05:48:29.740032Z","epoch_age_seconds":113231,"freshness":"FRESH","line1":"1 60098U 24117H   26264.24201088 -.00000604  00000+0 -67470-5 0  9993","line2":"2 60098  53.1577 206.1638 0001498  87.0631 273.0543 15.34391471126861","mean_motion":15.34391471,"eccentricity":0.0001498,"inclination_deg":53.1577,"raan_deg":206.1638,"arg_perigee_deg":87.0631,"mean_anomaly_deg":273.0543,"bstar":-6.747e-6,"rev_number":12686,"period_min":93.848279739297,"perigee_km":461.70382864451,"apogee_km":463.75335197536,"semimajor_km":6840.8655903099,"source":"CELESTRAK","updated_at":"2026-09-22T09:00:49.151022Z"}}